GFSWCAN_sfc_30mbdewp_003.txt.gz
Dewpoint
51 51 52 52 52 52 52 52 52 52 52 52 53 53 53 52 51 52 53 56 51 46 46 45 45 42 42 41 37 39 37 37 40 36 34 32 31 32 33 30 27 28 27 29 31 29 24 33 33 30 33 38 38 39
50 50 50 51 51 51 51 52 52 52 52 52 53 53 52 52 51 52 50 56 55 49 48 52 51 51 48 47 44 42 39 40 40 37 36 34 34 36 32 29 31 28 29 26 30 28 32 34 33 35 35 36 39 40
48 49 50 50 50 50 50 51 51 51 52 52 52 52 52 51 51 52 52 55 52 47 46 46 44 48 50 48 48 42 43 42 42 42 39 37 35 37 33 33 34 34 35 32 32 32 32 34 35 36 37 39 41 42
46 47 48 48 49 49 50 50 50 50 50 51 51 51 52 51 51 51 51 54 51 46 42 42 47 45 48 48 48 48 45 46 46 45 42 39 37 40 36 36 34 35 36 33 33 34 34 35 35 37 40 43 43 41
45 46 47 47 47 48 48 49 49 50 50 50 50 50 51 51 51 51 52 53 54 48 42 40 44 45 45 45 46 46 46 46 45 42 40 38 39 38 38 38 36 37 35 34 32 34 35 36 38 39 40 40 39 37
45 45 46 46 46 46 46 47 48 48 49 49 50 50 50 50 50 49 45 49 53 53 46 40 43 42 43 44 43 44 45 46 45 43 40 41 41 38 35 33 35 35 37 38 37 37 37 39 39 37 36 35 29 28
44 45 45 46 45 46 46 46 47 47 48 49 49 49 49 49 50 46 43 46 51 52 43 40 38 41 41 41 43 44 45 44 45 43 41 40 40 41 36 34 35 37 37 37 37 38 39 41 37 32 29 28 27 28
44 45 46 45 45 45 45 46 47 47 47 48 48 48 49 49 48 45 46 48 51 46 42 38 36 36 40 40 38 40 39 40 42 41 40 39 39 39 34 37 37 36 36 35 37 38 35 31 27 25 25 26 27 30
44 45 45 45 45 44 45 46 46 47 48 48 48 48 45 43 41 42 47 46 45 43 38 34 33 33 39 38 37 37 37 34 37 36 37 38 35 33 36 35 34 34 34 33 32 30 28 27 27 27 26 27 30 33
44 44 45 45 44 44 45 46 46 46 46 45 43 39 37 41 46 45 41 38 38 35 35 32 36 34 37 35 34 34 35 32 30 32 36 35 33 33 33 33 33 33 31 32 32 32 28 25 26 26 28 30 33 33
44 44 44 44 44 44 45 45 45 43 41 42 37 37 42 46 42 38 33 32 32 30 32 32 35 34 38 33 32 34 31 32 26 27 31 28 29 28 28 31 32 32 29 29 27 25 24 23 24 28 30 30 31 33
43 45 45 44 44 44 45 45 44 41 42 41 40 42 42 39 37 32 30 32 30 28 32 31 33 36 37 39 33 33 29 30 23 29 27 24 25 24 29 30 27 26 24 23 21 21 23 25 29 31 30 30 32 33
44 45 45 44 44 43 44 40 39 41 42 41 37 35 35 34 28 27 25 28 29 34 35 35 33 34 35 34 31 29 24 23 30 27 23 24 28 30 27 27 26 26 25 25 25 27 27 30 32 32 32 31 31 31
45 45 44 43 43 42 40 38 40 40 38 33 30 25 27 26 26 29 29 30 33 34 34 33 32 31 31 28 28 25 26 26 25 23 22 24 27 29 29 29 29 29 28 27 28 29 30 31 32 31 31 32 32 29
43 43 43 42 41 40 40 39 38 38 35 30 30 22 26 31 31 31 33 33 34 35 34 32 31 31 28 26 27 25 22 19 21 19 23 26 27 27 27 27 26 26 28 29 30 30 31 32 33 32 32 33 32 29
42 40 40 42 41 40 39 37 37 36 29 29 29 26 29 28 29 29 30 32 34 32 32 31 27 23 22 23 22 20 19 17 19 24 26 26 26 27 27 27 27 30 31 31 31 31 32 33 33 33 33 33 32 30
36 37 41 40 40 39 37 35 33 31 29 24 27 31 31 29 29 30 30 31 34 29 24 23 20 17 21 20 19 21 18 20 25 24 25 25 25 26 27 26 26 29 29 28 28 31 32 33 33 32 31 31 31 30
37 40 39 37 36 36 33 34 31 28 24 26 24 27 27 28 29 29 30 32 32 29 24 19 20 14 11 10 10 13 20 23 23 24 25 25 26 27 26 26 26 26 26 26 27 30 31 32 31 30 31 31 30 29
38 39 38 37 37 32 28 28 31 23 24 26 26 29 29 29 29 29 31 32 33 31 26 23 18 17 15 15 14 17 21 24 25 26 26 26 26 26 26 27 27 27 27 27 28 28 30 32 30 30 32 31 29 29
38 39 37 37 37 30 28 28 30 26 25 25 25 25 26 25 27 30 31 31 30 28 26 24 21 19 20 21 24 25 25 25 24 24 25 26 27 28 28 27 27 28 28 28 28 29 31 31 31 31 32 32 31 31
35 37 38 38 36 35 28 26 24 24 24 22 25 25 23 26 27 28 28 28 25 24 22 21 19 20 22 23 24 25 25 25 25 26 26 27 26 26 26 27 28 28 28 29 29 30 31 31 31 32 32 31 32 32
37 36 36 36 31 30 28 27 24 25 24 22 21 23 22 23 24 26 28 27 25 22 22 20 20 21 23 24 24 25 26 27 27 27 25 25 26 28 29 30 30 30 30 30 30 32 33 33 33 32 32 31 31 30
36 35 32 31 27 26 22 29 24 25 23 22 22 20 20 21 22 27 24 24 24 24 24 24 25 25 26 26 26 25 25 24 24 24 26 28 30 31 31 31 31 32 31 31 33 32 32 33 32 31 31 30 29 29
36 31 27 26 25 22 26 25 25 24 22 20 20 18 19 20 23 21 20 19 21 23 23 23 24 24 25 25 24 24 25 26 27 27 29 32 30 29 30 30 31 32 32 32 32 33 32 31 31 31 30 30 29 28
26 26 27 23 27 22 22 22 21 20 18 19 18 16 17 19 17 16 15 16 18 21 23 24 25 26 25 25 25 26 26 28 26 27 30 29 28 28 29 31 32 32 32 32 31 31 31 31 30 29 29 29 28 27
22 25 22 21 23 21 20 16 18 18 17 16 16 17 18 17 16 15 16 16 18 22 23 25 25 25 27 27 25 24 26 32 30 28 28 28 29 29 28 27 29 29 32 32 31 30 30 30 29 28 28 29 28 28
21 22 25 26 23 22 19 20 19 17 16 15 16 17 16 16 15 15 14 15 19 24 26 28 29 29 27 25 26 32 32 31 30 28 29 29 28 28 29 28 28 30 33 33 31 30 29 30 30 29 28 28 28 25
23 22 21 23 21 22 20 19 18 17 17 18 16 13 13 14 13 16 16 25 25 25 24 25 27 27 26 26 30 30 29 29 29 29 30 29 28 29 30 32 32 32 32 32 31 31 31 31 31 29 27 26 26 26
24 22 21 20 22 21 20 18 18 19 18 17 15 15 15 18 19 22 25 28 30 29 27 28 28 32 32 32 31 28 28 28 28 26 25 26 24 27 29 29 30 31 31 30 31 31 31 31 31 30 29 27 27 28
22 23 20 18 17 17 18 20 19 21 23 23 23 24 26 26 27 28 28 29 28 29 30 30 30 30 28 27 26 26 28 30 31 29 26 24 25 26 28 29 30 30 31 31 30 29 29 30 30 29 28 27 26 25
22 23 21 20 18 19 21 22 25 26 27 26 26 25 24 25 27 28 30 29 30 31 30 28 28 29 28 28 27 25 24 28 26 26 25 26 28 29 30 29 29 29 30 29 28 27 27 27 27 26 25 24 24 23
23 21 20 19 19 21 25 23 22 23 23 25 26 26 27 26 25 24 22 23 25 25 25 25 24 24 25 26 27 27 25 22 21 21 20 20 20 22 26 28 30 30 29 27 27 27 26 25 25 25 24 23 22 20
21 21 21 21 20 18 19 20 20 20 21 22 22 24 25 25 23 19 22 22 21 19 18 19 21 22 24 26 25 25 22 21 21 21 20 19 18 18 18 19 21 24 26 26 25 24 23 22 21 21 21 20 17 14

GFSWCAN_sfc_30mbdewp_006.txt.gz
Dewpoint
51 51 51 51 51 51 51 52 52 52 52 52 52 53 53 52 51 51 52 55 48 44 45 46 45 41 42 40 36 38 37 37 38 35 33 31 30 30 32 30 27 25 25 27 29 27 24 33 33 30 31 35 35 36
51 50 50 51 51 51 51 52 52 52 52 52 53 53 53 52 51 52 48 55 54 47 44 52 51 50 48 44 42 42 38 37 38 35 35 32 31 34 31 28 32 28 28 26 27 26 31 33 33 35 36 35 36 39
49 50 50 50 51 51 51 51 51 51 52 52 52 52 53 52 51 52 51 53 50 46 45 45 43 48 50 49 48 42 41 42 41 39 37 36 34 35 32 32 34 33 33 31 31 31 32 34 35 36 36 38 42 43
47 48 49 49 49 50 50 50 50 50 50 50 51 52 52 52 51 51 50 53 49 45 43 41 46 46 47 47 48 47 45 45 45 44 40 39 36 39 36 37 35 36 38 35 34 35 35 35 35 37 40 42 39 38
46 47 47 47 48 49 49 49 50 50 50 49 49 50 51 52 51 51 51 52 52 48 42 41 44 44 46 47 46 47 47 46 44 42 40 38 39 38 38 37 36 37 35 34 33 34 35 35 39 38 37 38 37 36
45 45 46 46 46 47 47 48 48 49 50 49 49 49 50 50 50 50 46 49 52 53 46 39 44 43 44 44 44 44 45 46 45 42 40 40 40 38 36 34 35 36 38 38 37 38 38 39 40 40 35 37 36 34
45 45 45 45 45 45 45 46 47 48 48 49 49 49 49 49 50 47 44 46 51 52 45 40 39 40 40 41 42 43 44 44 44 43 41 40 40 41 37 35 36 36 37 37 38 39 38 39 36 36 32 28 28 28
45 45 45 45 45 45 46 45 46 46 47 48 48 49 49 49 48 45 46 48 52 47 42 39 36 37 41 38 38 39 38 39 42 42 39 39 39 39 35 36 38 38 38 38 38 37 37 36 32 27 28 29 29 30
45 45 45 44 44 45 46 45 46 47 47 48 48 48 45 44 42 43 46 46 45 44 39 35 33 33 40 38 37 37 37 36 37 36 37 38 35 33 34 36 37 37 34 33 33 33 31 30 29 30 29 28 30 30
44 45 45 44 44 44 46 46 46 47 47 47 42 40 37 40 46 45 41 40 39 36 36 33 36 35 38 36 35 35 34 32 30 32 36 35 33 34 34 36 36 34 33 33 29 28 28 24 23 25 28 30 30 29
44 44 44 43 44 44 45 45 43 42 42 41 37 37 42 46 42 37 34 35 33 32 32 33 34 35 38 34 33 34 31 31 26 26 30 27 28 30 30 32 33 32 32 30 25 23 23 23 24 27 29 30 30 30
44 44 44 43 44 45 45 45 42 42 41 40 40 42 42 39 36 33 31 31 30 28 32 31 33 36 36 38 32 31 28 28 23 27 29 23 25 29 28 28 27 25 24 24 25 25 26 26 27 30 31 31 31 30
43 45 44 44 44 45 45 41 41 42 43 40 35 36 34 34 29 27 24 27 26 32 33 34 33 34 35 34 31 29 26 23 28 25 22 23 27 29 28 29 29 29 27 27 29 29 29 27 28 30 31 31 30 30
43 44 44 44 43 43 39 40 41 38 37 32 29 27 28 25 27 28 28 29 33 34 34 34 32 30 30 27 27 23 24 25 23 20 21 23 26 28 27 28 25 25 25 25 28 29 29 28 29 30 32 31 31 31
44 44 44 43 42 40 39 39 37 38 34 29 27 17 24 29 31 31 33 33 33 35 34 31 31 30 27 24 26 23 22 19 19 19 22 24 26 24 23 25 27 26 24 25 28 29 29 28 28 29 32 32 31 31
43 41 41 42 40 39 38 37 37 35 27 28 28 25 28 28 27 29 30 31 33 33 32 30 26 23 22 22 21 19 18 16 17 22 23 25 25 25 25 27 27 26 25 27 28 29 29 28 26 28 32 32 31 31
38 38 42 41 39 38 37 35 32 30 27 22 25 29 28 27 27 28 29 32 34 30 22 24 21 13 19 19 20 21 19 17 23 22 24 25 25 25 26 25 25 26 26 27 27 27 26 26 28 30 30 31 29 30
38 41 40 39 37 35 33 33 29 25 21 25 24 24 28 28 29 30 30 33 32 29 25 18 20 17 16 14 14 15 18 21 23 23 25 25 25 25 26 25 26 27 27 27 27 26 27 27 27 28 30 29 30 30
39 39 38 38 35 31 28 30 29 21 22 24 26 27 26 26 27 28 28 31 33 31 26 22 18 16 14 15 11 11 14 21 24 23 23 25 26 26 26 27 27 28 27 27 27 27 28 28 28 29 30 30 30 30
39 38 37 38 37 29 27 27 29 25 23 24 24 25 25 24 26 27 29 30 30 28 26 25 21 18 18 18 21 22 22 23 23 23 23 24 25 27 27 27 27 27 27 28 28 27 28 28 29 30 31 31 30 29
37 39 39 37 34 31 26 26 25 25 23 22 24 24 23 25 25 26 27 29 26 23 22 23 22 22 23 22 23 23 23 23 23 24 24 25 26 26 26 27 28 29 28 29 28 29 29 29 30 31 31 32 31 32
37 38 35 36 30 27 26 26 22 23 22 21 21 22 21 22 23 24 26 26 25 23 22 21 20 21 21 21 21 23 24 25 26 27 27 27 25 24 26 29 29 29 30 29 30 31 31 32 33 33 32 32 31 30
34 33 32 30 25 23 19 27 23 24 22 21 21 20 19 20 21 25 24 24 24 24 24 24 23 24 24 25 26 26 27 26 26 25 25 25 25 28 29 28 28 29 28 30 31 31 31 32 32 32 32 31 30 28
35 29 25 24 21 20 23 23 25 23 21 21 20 19 19 19 22 23 20 18 19 21 22 22 24 24 25 25 25 25 25 25 25 25 25 26 29 28 27 27 27 29 30 32 31 31 32 31 31 30 30 29 28 27
23 24 24 20 23 21 19 20 20 20 19 19 18 16 15 19 17 17 15 15 15 17 19 21 23 24 23 23 24 24 26 26 25 24 26 28 27 26 27 27 27 27 29 31 30 31 31 31 30 30 29 28 28 28
21 23 22 21 21 20 19 17 19 18 17 17 17 16 17 16 15 14 15 14 13 14 15 17 19 21 23 26 26 26 25 27 29 28 27 27 28 27 27 26 26 26 29 32 30 30 29 29 28 27 27 28 28 28
20 21 24 24 22 21 19 17 16 16 15 14 15 15 15 15 15 14 16 17 16 18 24 25 25 24 24 24 26 27 29 29 29 28 28 29 28 28 27 26 26 28 31 31 31 30 29 28 28 28 28 28 29 29
22 20 20 22 22 21 17 17 17 16 15 17 15 13 12 13 11 13 16 22 23 25 26 26 26 26 25 25 26 28 29 27 27 27 27 27 27 28 29 30 30 29 29 30 30 30 30 30 30 30 30 29 28 28
23 22 22 21 20 19 19 18 17 18 18 16 13 12 13 15 16 16 19 22 27 28 27 26 27 29 31 31 31 31 30 29 27 25 24 23 24 25 25 25 27 28 29 29 30 30 30 30 30 30 30 30 29 29
21 23 21 17 18 19 19 19 17 17 18 20 20 20 20 21 22 25 26 26 26 27 28 29 29 30 30 29 28 26 27 30 30 27 24 23 23 24 27 29 28 28 28 29 29 29 27 27 28 29 28 27 26 25
21 21 19 16 15 15 17 18 19 21 21 22 23 22 22 23 24 23 22 23 26 28 28 28 27 27 26 25 25 25 24 22 22 21 20 20 21 22 23 25 28 29 27 26 26 26 25 26 26 25 24 24 23 23
21 20 18 17 18 19 21 21 21 21 20 20 21 22 23 24 24 19 19 19 19 18 18 18 18 19 21 23 24 22 21 19 18 18 18 18 18 18 18 19 21 24 26 26 25 24 24 23 23 23 23 23 21 20
19 18 17 18 18 17 16 17 17 17 17 17 17 19 21 22 20 16 17 17 15 14 14 15 16 18 19 22 22 20 19 19 20 20 19 18 15 14 13 14 17 19 22 21 20 19 17 16 15 13 13 12 11 10

GFSWCAN_sfc_30mbdewp_009.txt.gz
Dewpoint
50 50 51 51 51 51 51 51 52 52 52 52 52 53 53 52 51 51 52 54 47 42 44 46 44 41 41 38 36 38 37 37 37 34 31 30 28 29 31 29 27 25 24 25 27 25 23 32 33 29 31 33 35 36
51 50 51 51 51 51 51 51 51 52 52 52 52 52 53 52 51 51 50 54 52 45 43 51 51 49 45 42 40 40 37 36 37 35 34 30 30 31 30 28 31 28 28 26 27 26 30 31 33 34 36 36 36 39
50 50 50 50 51 51 51 51 51 51 52 52 52 53 53 52 51 51 51 52 48 45 44 44 44 46 50 49 46 41 39 40 39 39 35 34 34 34 32 32 34 34 35 32 31 32 32 34 36 36 37 37 42 39
48 49 49 49 50 50 50 51 51 50 51 51 52 52 52 52 51 51 50 50 48 44 42 41 45 46 48 49 48 47 45 45 44 40 38 37 36 38 36 37 36 36 38 36 34 36 37 37 36 38 41 40 37 37
47 47 48 48 49 50 50 49 49 49 49 49 49 50 51 52 51 51 51 52 52 47 41 42 44 44 45 47 46 47 46 45 44 41 40 38 38 38 38 37 35 39 36 34 34 36 35 35 41 40 38 37 37 35
46 46 46 47 47 48 48 49 49 50 50 49 48 48 49 50 51 51 47 50 52 52 46 39 43 43 43 44 44 44 45 45 43 41 39 40 40 38 35 33 35 36 39 39 38 38 39 42 38 37 36 35 33 36
45 45 46 46 46 46 47 48 48 49 49 49 49 49 49 50 51 48 45 46 50 51 45 40 39 40 40 40 41 42 43 43 43 42 40 40 39 40 37 34 36 37 39 38 39 40 39 37 35 32 30 31 31 30
45 45 45 45 45 45 46 46 47 47 48 48 49 49 49 49 48 46 47 49 50 47 43 39 37 37 40 37 38 38 38 39 42 41 39 38 39 39 35 35 36 37 37 37 37 38 37 35 33 31 29 30 31 31
45 45 44 44 45 45 45 46 46 47 47 48 48 48 46 45 43 43 46 47 45 45 40 36 34 34 39 37 36 36 36 36 37 36 36 38 36 34 36 36 35 36 36 35 33 33 33 29 29 25 25 26 28 30
45 45 44 44 44 46 46 47 47 47 47 47 43 41 38 40 46 46 42 41 41 38 37 35 36 35 39 36 35 35 34 33 31 33 35 33 33 34 32 31 33 34 34 32 28 27 22 20 20 20 22 28 30 30
44 44 44 44 44 45 44 44 47 47 44 39 38 36 42 45 41 37 35 36 34 33 33 33 34 35 38 34 34 34 32 31 26 25 30 27 27 28 30 29 29 30 25 24 24 24 25 25 23 23 25 29 30 30
44 44 43 44 44 45 45 42 42 42 40 39 41 42 41 38 35 34 32 32 31 29 32 31 33 36 36 38 33 31 29 28 23 27 28 24 25 28 27 26 27 27 26 25 26 26 27 28 27 27 28 29 30 30
44 44 44 44 45 45 43 42 42 42 42 38 36 36 34 33 30 28 25 27 27 31 33 33 32 34 35 34 31 30 26 24 27 26 23 23 26 29 28 27 26 29 28 26 24 26 29 29 29 28 27 29 31 30
44 44 44 44 44 42 41 41 39 38 35 29 29 28 28 26 28 27 26 26 30 34 34 34 31 30 30 28 27 23 23 24 22 20 19 23 25 22 20 22 25 26 25 22 22 24 26 27 28 28 27 28 30 31
44 44 44 43 43 40 39 38 38 36 32 29 22 18 25 27 30 32 33 33 33 34 33 32 30 29 27 25 25 22 22 18 18 18 21 23 22 23 24 25 26 25 24 24 25 26 26 26 26 26 26 26 28 31
44 43 42 42 41 39 38 38 35 32 28 28 27 24 28 26 27 29 31 31 34 33 31 28 24 23 24 21 21 19 17 15 16 21 22 23 24 25 24 24 25 26 25 25 26 26 27 26 26 26 26 27 30 31
40 39 42 40 39 38 37 34 30 29 23 22 24 28 26 26 25 28 28 31 33 29 22 23 19 15 19 19 18 20 18 18 21 19 21 24 25 24 24 25 25 25 26 26 27 27 27 27 26 25 26 27 28 29
38 42 41 40 37 35 34 31 28 23 21 24 23 24 27 26 28 29 29 30 33 29 24 21 20 17 15 14 16 18 20 21 21 22 23 24 25 24 25 25 26 26 26 27 27 27 27 27 27 27 27 28 28 28
40 40 40 37 33 30 29 31 28 19 19 23 24 25 24 25 26 26 26 31 32 30 27 23 19 15 13 15 11 10 11 16 21 21 22 23 24 24 25 25 26 27 27 27 27 28 28 28 28 28 29 29 29 30
40 39 38 37 33 28 25 28 28 25 22 23 24 26 25 24 25 26 28 29 30 30 28 25 21 18 17 17 18 18 20 22 22 20 21 22 24 25 26 26 27 27 27 28 28 28 28 28 28 29 30 30 30 30
38 38 37 35 33 28 26 25 24 24 24 22 23 23 22 24 25 25 25 28 27 26 23 24 23 22 23 24 24 23 23 23 22 22 22 23 25 26 27 27 26 28 28 27 27 28 29 29 29 31 32 32 32 32
37 38 35 33 28 25 26 25 21 23 21 21 21 22 21 21 22 24 25 26 25 22 21 21 21 21 22 22 21 23 22 23 24 25 26 26 25 25 24 25 28 27 27 27 27 28 30 30 31 31 31 31 32 31
34 32 31 28 23 19 20 25 22 23 20 20 21 20 19 19 20 25 24 24 24 24 23 24 24 24 24 24 24 24 25 25 25 26 26 25 25 25 24 27 26 26 26 27 28 28 30 31 31 30 31 31 29 28
32 28 24 23 19 19 21 21 24 23 21 21 19 17 17 18 20 22 20 20 21 23 23 23 24 24 24 24 24 25 25 26 26 25 25 24 23 24 27 27 26 26 28 28 28 28 31 31 31 29 29 29 28 28
22 24 21 19 21 20 17 19 20 21 19 18 18 17 15 17 18 18 17 15 15 16 17 18 20 22 22 21 22 23 25 25 25 24 24 23 25 26 26 25 25 27 27 27 27 29 30 30 30 29 28 28 28 27
18 22 21 19 19 19 17 17 18 17 16 17 17 16 14 15 14 13 14 13 12 12 12 12 14 18 21 23 23 22 22 25 25 24 25 27 27 26 25 25 25 24 25 28 30 28 28 28 29 29 28 27 27 27
19 20 23 22 21 20 18 15 15 16 16 16 14 14 15 14 13 14 16 17 16 16 19 22 22 22 22 23 24 24 25 25 27 27 28 27 27 28 28 27 26 27 29 29 28 27 27 28 28 29 28 29 28 28
22 20 19 22 22 19 16 16 16 16 14 15 13 14 13 13 11 14 15 17 18 22 24 25 26 26 26 26 26 27 27 26 27 28 28 26 26 25 26 28 27 26 26 27 28 29 28 28 28 28 28 29 29 29
23 22 20 20 19 20 20 19 17 17 18 16 13 11 11 13 14 14 16 18 21 25 25 25 25 26 27 30 30 30 31 30 27 24 22 22 24 25 24 25 27 28 27 26 27 29 29 28 28 27 27 28 29 30
20 22 22 20 20 20 20 19 17 16 17 19 19 18 18 19 19 22 23 23 24 25 26 28 29 29 29 29 29 28 27 27 27 26 23 21 21 21 23 25 26 27 27 27 26 25 24 24 25 24 24 25 25 24
19 20 19 16 16 15 16 16 15 16 17 18 19 19 20 21 19 17 16 17 20 20 20 20 22 21 20 21 21 22 22 20 19 19 18 17 17 17 18 19 20 21 25 24 24 23 22 22 23 23 22 22 22 21
20 19 18 16 15 16 16 19 18 18 19 18 20 19 19 20 21 13 14 14 13 13 13 14 14 16 18 19 20 19 19 18 18 17 17 16 16 14 14 15 16 18 20 21 21 20 18 17 16 15 17 18 15 13
16 15 13 16 16 14 13 12 12 12 11 12 13 15 16 17 13 11 15 16 14 12 12 13 14 15 17 19 19 18 18 18 18 18 18 16 14 11 10 10 11 14 16 16 15 14 13 11 10 9 8 8 7 6

GFSWCAN_sfc_30mbdewp_012.txt.gz
Dewpoint
50 50 50 50 50 50 51 51 52 52 52 52 52 53 53 51 51 52 52 52 45 39 42 45 42 39 40 37 34 37 37 37 36 34 32 30 28 28 29 28 26 24 24 24 26 25 22 30 31 29 30 33 34 35
49 50 50 50 50 50 50 51 51 52 52 52 52 52 53 52 51 50 50 52 50 43 41 50 50 49 42 40 38 38 36 36 37 34 33 29 29 29 28 26 31 28 28 26 28 28 30 31 32 33 34 36 36 39
48 49 49 49 50 50 50 50 51 51 52 52 52 52 53 52 51 51 51 51 47 43 43 44 44 46 49 49 45 40 38 39 38 38 34 33 32 32 31 31 32 33 35 33 31 32 34 37 37 37 39 39 39 39
47 47 49 49 49 50 50 50 50 50 51 51 52 52 52 52 52 51 49 49 46 43 40 40 44 44 47 49 48 46 43 44 41 39 37 36 35 36 34 35 35 37 36 35 35 36 37 37 38 41 40 39 38 38
47 47 47 48 48 49 50 50 50 50 50 50 50 50 51 52 51 51 51 52 50 46 41 41 44 44 45 46 47 47 45 44 42 41 39 38 38 38 37 36 35 38 37 35 32 35 36 39 41 41 38 37 37 35
46 46 46 47 48 48 49 50 50 49 49 49 49 49 49 51 52 51 47 49 52 50 45 39 42 42 42 43 45 45 45 45 43 42 39 40 40 38 35 33 36 37 38 38 37 39 41 41 39 38 36 35 34 33
45 46 46 46 46 47 48 48 49 49 49 49 49 49 49 51 51 48 44 45 51 50 45 39 39 39 39 40 41 41 42 42 43 41 40 39 38 40 36 33 36 36 37 39 39 39 39 39 35 34 33 29 28 30
45 45 45 45 46 46 47 47 47 48 49 49 49 49 49 49 48 47 47 49 51 46 44 38 37 38 40 37 38 38 38 39 41 40 39 38 38 38 35 36 36 35 36 37 37 37 36 34 30 26 23 23 22 24
45 44 44 45 45 45 46 47 47 47 48 48 48 48 47 45 44 44 47 47 46 44 40 36 35 34 40 37 36 36 36 35 37 35 36 37 35 32 33 30 31 33 34 35 34 33 27 24 24 22 22 21 23 25
45 45 44 44 45 46 46 46 47 47 47 47 45 41 38 40 46 46 43 42 41 38 37 36 36 35 39 36 35 36 34 33 29 33 34 33 33 31 30 32 33 31 30 29 25 24 25 24 23 22 23 23 25 27
45 44 44 44 45 44 46 46 47 47 44 41 39 37 42 46 41 38 35 35 35 34 34 34 35 35 38 35 35 34 33 31 26 25 29 28 27 26 27 25 25 25 25 25 25 25 25 26 27 27 26 25 25 27
44 44 43 44 45 44 44 46 44 42 41 40 41 43 41 39 36 34 32 32 32 30 32 32 33 36 35 38 34 31 29 28 23 27 27 24 26 28 29 28 27 28 27 25 25 23 23 25 27 28 29 28 28 28
44 44 43 44 45 45 42 42 42 43 40 37 38 36 35 33 30 29 26 28 28 31 33 33 32 34 34 34 31 29 26 24 27 25 23 24 27 24 22 23 23 25 24 23 23 23 24 25 26 26 26 26 27 27
44 44 44 44 45 41 43 42 41 38 33 29 30 29 28 27 29 28 26 26 29 33 33 33 31 30 30 29 28 24 23 24 22 20 18 23 22 21 22 24 24 22 22 23 23 25 25 25 25 25 25 25 25 25
44 44 44 44 41 41 40 38 37 36 31 26 22 24 26 27 29 32 33 33 33 34 33 31 30 29 26 25 24 22 21 18 18 17 20 22 23 24 24 21 21 22 23 24 25 25 25 25 25 25 26 26 25 25
44 44 42 43 40 39 38 36 34 29 28 28 25 23 27 27 27 29 32 31 34 33 31 27 24 24 24 22 21 19 17 15 15 20 20 23 23 25 24 22 23 24 25 25 26 26 26 26 26 26 27 26 26 26
43 40 43 42 40 37 36 33 30 28 21 23 23 27 25 25 24 27 29 31 33 30 26 23 21 20 19 20 19 19 17 17 19 17 20 23 22 21 22 23 24 24 25 25 26 26 26 27 26 26 26 27 27 27
39 42 41 39 36 36 34 30 26 22 21 23 22 25 28 26 27 27 28 29 31 27 23 22 20 16 14 12 14 16 20 20 20 20 22 22 23 23 24 24 25 25 26 26 26 26 26 26 27 27 27 28 28 29
41 41 39 36 33 31 31 30 26 21 18 23 23 24 24 26 27 26 27 29 31 29 26 23 20 17 14 16 13 12 12 13 17 20 22 22 23 23 23 25 25 26 26 26 27 27 28 28 28 28 27 28 28 30
41 38 36 34 31 27 26 27 27 23 20 23 24 26 25 24 24 26 27 29 30 30 28 25 22 19 17 16 17 17 18 19 21 21 21 21 22 23 24 25 26 27 27 27 27 26 26 27 28 28 28 29 29 30
38 38 36 34 31 27 25 25 24 23 24 23 23 23 22 23 24 24 25 28 27 27 24 25 24 24 24 23 23 23 23 23 22 22 20 20 23 25 25 26 27 26 26 26 25 25 26 26 27 30 29 29 29 30
37 38 34 31 26 24 25 24 22 23 20 20 21 21 21 21 21 22 23 24 23 23 23 20 21 22 22 22 21 23 23 23 24 24 24 24 24 24 24 24 24 24 26 25 25 25 27 26 27 29 30 29 30 31
33 32 29 25 21 19 22 24 22 22 18 19 20 19 18 19 18 24 22 23 24 25 24 23 22 23 23 24 24 24 25 24 24 24 25 25 25 25 24 24 23 25 26 25 25 26 26 26 28 30 30 30 29 28
31 26 24 21 18 20 21 21 22 22 20 20 18 16 16 17 19 20 19 19 22 23 23 22 24 23 24 24 24 23 24 25 25 25 25 24 24 24 23 23 25 25 25 26 26 27 27 27 31 30 30 29 28 27
24 23 19 19 21 19 17 18 19 21 18 16 19 18 16 17 18 18 18 18 16 14 15 16 18 21 19 19 20 21 23 24 22 21 23 23 23 22 23 25 25 24 24 24 24 25 27 28 26 26 28 28 28 27
17 21 19 17 18 18 16 16 17 17 16 17 17 15 12 14 15 12 13 13 11 11 12 13 14 15 20 21 21 21 22 23 23 23 24 24 23 24 25 25 25 25 24 26 27 27 26 26 25 25 25 26 28 28
18 19 22 22 19 17 16 12 13 15 16 15 14 15 15 14 13 14 16 17 15 15 16 18 19 20 20 21 23 24 24 24 25 25 25 26 26 27 28 27 26 26 28 28 27 26 26 26 26 26 26 26 27 28
20 19 18 21 21 17 16 16 16 16 15 14 12 14 13 12 11 15 16 16 16 16 18 21 24 24 25 25 25 25 27 28 27 26 27 27 28 27 26 26 26 26 25 27 27 27 27 27 26 26 25 25 25 26
22 21 19 19 19 19 19 17 15 16 17 15 13 12 12 14 14 14 17 21 21 22 22 23 24 25 26 26 27 28 30 29 27 24 22 22 22 24 22 23 25 27 28 26 27 27 26 24 24 24 23 23 24 25
20 20 20 19 19 18 19 20 19 17 17 17 17 18 18 18 17 15 16 18 19 21 23 24 23 23 23 23 25 25 21 22 23 23 22 20 20 18 18 19 20 21 22 25 25 24 23 21 21 21 21 20 20 19
18 20 20 18 19 17 18 15 14 14 15 16 17 17 18 18 15 13 13 13 14 14 13 12 13 16 16 16 16 18 20 17 17 17 17 16 16 16 15 15 15 16 18 19 20 19 17 16 14 14 16 17 14 13
18 19 18 17 15 13 13 17 15 15 12 12 14 14 15 18 13 10 12 12 10 9 10 11 11 11 15 16 18 17 17 17 16 16 15 15 14 13 10 10 10 11 14 15 14 13 11 10 9 9 9 8 7 6
12 11 11 16 17 14 11 7 7 10 9 7 9 15 11 12 5 8 13 12 11 9 8 9 12 14 15 15 14 14 14 14 14 13 13 12 8 6 5 4 5 7 10 9 8 8 7 6 5 4 4 3 2 2

GFSWCAN_sfc_30mbdewp_015.txt.gz
Dewpoint
49 50 50 50 50 50 49 50 50 51 51 52 52 53 52 51 50 52 52 51 43 38 41 44 41 37 38 36 33 37 38 37 36 35 33 31 29 29 28 27 25 24 24 24 27 25 22 29 30 29 32 36 35 37
49 49 50 50 50 50 50 50 51 52 52 51 52 52 53 52 51 50 49 50 48 41 41 49 50 46 41 39 38 38 35 36 38 34 32 30 30 28 28 26 30 27 28 27 29 29 30 30 32 34 36 37 38 39
47 48 49 49 49 50 49 50 51 51 52 52 52 52 53 52 51 51 50 50 46 42 42 44 44 46 50 47 43 39 38 38 38 37 34 32 32 31 29 29 30 32 33 31 32 33 33 35 37 40 41 40 39 39
46 46 48 49 49 49 49 49 50 51 51 52 52 52 52 52 51 50 49 47 46 43 38 40 44 43 46 49 47 45 42 41 39 39 36 35 35 35 33 34 33 34 36 35 34 36 36 36 39 41 40 40 39 38
46 46 46 47 48 48 49 49 49 50 50 50 50 51 52 52 51 51 50 51 48 44 39 39 44 44 44 45 48 46 44 43 41 39 38 37 37 37 37 36 35 38 37 35 33 36 37 40 41 41 38 36 35 36
45 45 46 46 47 48 48 49 50 50 50 49 50 50 50 52 52 50 44 48 51 48 42 37 41 41 41 44 45 45 45 44 43 41 40 40 41 38 35 33 38 38 38 39 38 40 41 40 39 36 35 34 29 26
45 45 45 45 46 46 47 48 49 50 49 49 49 50 50 51 52 47 42 44 51 49 42 37 37 39 39 40 40 41 42 43 43 41 40 39 39 40 36 33 36 37 35 37 39 39 37 37 33 32 24 22 24 24
45 44 45 45 45 46 46 47 48 49 49 49 49 50 49 49 48 48 47 49 50 46 44 38 37 37 39 37 38 37 38 40 41 40 38 38 38 38 35 36 31 32 35 35 34 34 31 26 24 23 22 23 22 21
45 44 44 44 45 45 46 47 47 48 48 48 48 48 47 46 44 45 47 47 46 44 41 37 35 33 39 36 35 36 36 36 36 36 36 37 35 34 32 31 33 34 34 32 26 26 25 23 23 24 24 24 22 22
44 44 44 44 45 45 46 46 47 47 47 47 46 42 38 41 46 46 44 42 41 38 38 36 36 36 38 35 35 36 34 33 30 32 33 33 32 29 29 32 29 29 27 25 24 22 23 24 24 25 26 26 26 26
44 44 43 44 44 45 46 46 46 46 45 42 38 37 42 46 41 39 35 36 34 32 34 34 35 35 38 35 35 34 33 31 26 26 29 29 28 27 26 25 26 26 26 26 26 25 25 24 24 25 26 27 28 27
45 44 43 44 44 45 46 46 45 43 43 42 41 43 41 38 35 32 31 32 32 30 33 33 34 36 35 38 34 32 30 29 23 28 27 24 26 27 28 27 26 27 25 21 23 23 24 24 25 26 26 26 26 27
44 44 43 44 45 44 44 44 44 44 42 40 38 35 34 33 30 28 26 28 28 31 32 33 32 34 34 35 32 30 26 24 26 24 22 23 27 26 21 22 23 24 21 21 23 24 25 25 25 25 25 26 26 26
44 43 44 44 44 43 44 44 42 38 34 33 33 29 29 28 29 29 26 27 30 33 33 33 31 30 30 30 28 25 24 24 22 20 19 23 23 20 22 24 20 18 20 21 23 25 25 25 25 25 25 25 25 26
44 44 44 44 42 40 41 39 38 36 31 24 25 26 27 27 30 31 32 33 33 34 33 31 29 28 26 25 25 23 21 19 19 17 20 22 23 23 24 23 20 20 21 23 25 25 25 25 25 25 26 27 27 26
44 44 43 42 41 40 38 37 34 30 28 27 24 23 27 27 28 30 32 32 33 33 30 28 25 25 24 23 21 20 18 15 16 20 21 23 23 24 22 21 21 23 23 24 25 25 26 25 25 27 27 26 26 26
43 40 43 41 39 37 35 32 30 26 23 22 23 26 25 24 26 27 30 32 34 32 27 23 21 21 21 20 20 20 17 16 18 18 20 23 22 21 21 22 22 23 24 25 25 26 26 26 26 26 26 27 27 27
39 42 42 39 38 37 34 29 25 23 21 23 21 25 28 27 26 26 28 31 30 26 23 21 20 16 15 14 14 16 19 20 20 19 19 22 23 23 23 23 23 24 25 26 26 26 26 26 27 27 27 28 28 27
42 42 40 38 36 32 30 30 25 20 19 23 24 26 26 27 27 26 27 29 31 28 24 22 20 18 15 16 14 15 17 18 17 18 21 22 23 23 22 23 24 25 25 26 26 27 27 27 26 26 27 28 27 27
40 38 37 35 32 27 27 27 26 21 19 23 24 25 24 24 25 26 28 30 31 31 27 25 23 21 18 17 17 16 17 18 19 20 21 22 23 22 22 24 25 26 26 27 26 25 26 26 26 26 26 28 29 28
37 38 36 34 29 26 25 24 23 23 24 23 23 23 22 24 24 24 25 28 27 26 24 25 25 25 24 22 22 22 22 23 22 22 21 21 23 23 24 25 26 26 26 25 25 26 25 26 27 27 27 28 29 29
36 37 33 29 25 24 23 24 23 22 20 20 21 20 20 21 21 22 24 24 23 23 25 22 22 23 22 22 22 24 23 23 24 24 24 24 23 23 24 24 24 24 24 24 25 26 26 26 27 26 27 28 29 29
33 30 26 21 20 21 23 22 21 21 17 19 18 18 18 18 18 23 21 21 22 24 25 24 23 23 22 23 23 24 25 24 24 24 24 24 25 25 25 25 25 24 24 25 26 25 26 27 26 27 29 28 28 29
28 25 22 20 18 20 20 21 21 21 19 19 17 15 16 17 19 19 18 19 21 22 23 23 23 22 22 23 22 21 22 24 23 24 24 23 23 23 24 24 24 23 24 27 25 25 26 26 26 27 25 24 26 26
22 22 18 19 19 18 17 18 18 19 16 15 17 16 17 15 18 17 16 18 17 16 16 15 15 19 18 17 18 20 21 23 22 22 23 23 23 23 23 23 23 25 25 26 26 24 25 27 27 25 24 25 25 26
17 20 17 16 17 16 15 15 16 16 15 16 16 13 11 15 15 13 14 15 14 13 11 12 14 15 17 20 20 20 20 23 23 23 25 25 25 24 25 24 24 25 26 25 26 26 25 25 26 25 25 26 25 24
17 18 21 20 17 15 14 12 12 14 15 14 15 15 15 14 12 13 15 17 15 15 16 16 17 17 19 21 22 23 24 23 24 26 26 25 26 26 26 27 26 27 28 27 26 26 25 25 25 25 24 24 24 24
18 19 16 20 19 15 16 14 15 15 15 14 12 14 12 12 10 14 17 20 21 22 22 22 22 23 23 25 25 26 26 26 28 28 26 26 25 24 23 24 24 25 26 26 27 27 26 26 24 23 23 22 22 23
21 19 19 18 16 17 18 16 15 16 16 14 13 12 12 14 15 14 16 16 18 21 21 21 23 22 24 23 25 24 24 25 26 25 24 23 23 22 18 20 21 22 23 24 26 27 25 24 22 21 21 20 19 18
20 18 18 16 18 17 18 18 18 16 16 16 16 17 17 14 12 12 11 11 11 11 13 14 14 15 15 15 16 17 18 18 17 18 20 19 16 15 15 15 16 16 17 19 21 21 19 17 16 15 15 14 13 12
16 19 19 17 19 18 17 12 11 13 14 16 14 16 15 11 11 11 10 10 10 10 8 8 8 11 11 11 12 14 15 16 16 15 15 14 13 13 12 11 11 11 13 15 17 15 14 12 10 10 9 8 7 7
17 18 18 17 16 12 11 15 13 14 10 7 7 10 12 13 7 8 10 8 7 6 6 7 7 9 13 15 14 13 13 12 11 12 12 11 10 9 7 6 6 8 10 10 10 9 7 7 6 5 5 4 3 3
12 12 12 12 16 15 10 4 4 7 8 7 9 11 7 6 3 5 6 8 8 7 5 6 8 12 12 11 10 10 10 10 9 8 7 7 5 3 3 3 3 4 6 6 5 5 4 3 3 2 1 0 -0 -1

GFSWCAN_sfc_30mbdewp_018.txt.gz
Dewpoint
49 50 51 50 50 49 49 50 50 51 52 52 52 53 52 51 51 53 53 52 48 43 42 44 42 40 39 39 39 41 40 41 40 36 36 35 33 32 29 28 28 26 30 29 30 27 26 30 30 32 35 36 37 39
47 48 50 50 50 50 49 49 50 51 51 51 52 52 52 51 51 52 50 52 51 47 45 50 50 47 45 40 40 43 40 40 42 40 38 36 32 32 34 28 30 28 29 27 29 29 31 33 33 36 37 38 40 40
47 48 49 49 50 50 49 49 50 51 52 52 51 52 52 51 51 53 52 52 50 46 46 47 46 48 51 48 46 42 43 42 41 43 41 39 32 36 31 33 32 32 33 32 32 31 32 35 37 39 41 40 40 38
46 47 47 49 49 49 49 49 50 51 51 52 52 52 52 52 51 52 52 50 49 45 38 44 45 45 47 50 49 47 44 44 43 43 38 36 35 37 38 35 34 34 34 33 33 35 36 36 41 41 40 40 35 32
45 45 46 47 48 48 49 49 49 50 50 51 51 51 52 52 51 54 54 53 52 48 40 43 46 45 44 46 48 47 46 45 44 40 39 38 41 37 37 37 36 35 34 34 34 37 39 40 40 41 37 31 29 26
45 45 45 46 46 48 48 49 49 49 49 50 50 50 52 52 52 51 47 52 53 52 43 37 44 43 43 46 47 47 46 47 46 43 41 42 42 39 35 34 36 36 38 39 38 39 40 40 38 33 31 25 20 20
44 45 45 45 45 46 47 48 49 49 49 50 50 50 51 51 53 49 44 48 52 51 42 38 39 41 41 43 42 44 45 46 45 43 41 41 41 40 37 33 37 37 34 35 38 39 37 36 33 25 22 22 22 20
44 44 44 45 45 45 46 47 48 49 50 49 50 50 49 49 49 49 50 50 51 47 45 37 37 39 40 39 39 40 41 41 41 41 38 39 39 38 35 36 33 33 34 31 30 31 29 26 25 23 22 19 17 15
44 44 44 44 45 45 46 46 47 48 49 49 48 48 48 47 46 46 47 48 48 46 40 38 35 32 41 37 37 38 39 37 38 36 36 38 36 34 36 33 33 34 34 27 27 25 23 22 20 17 14 14 17 20
43 44 44 44 44 45 46 46 47 47 48 48 47 45 40 41 47 47 46 44 43 39 39 37 39 37 40 36 36 37 36 35 32 33 34 32 33 30 32 33 34 32 28 26 25 23 20 17 15 17 18 20 22 21
43 44 43 44 44 45 46 46 46 47 47 43 39 37 42 46 41 38 37 37 35 33 35 35 35 35 38 36 35 35 33 33 29 30 31 30 30 30 28 26 27 27 26 24 20 18 17 18 18 21 22 23 25 27
44 44 43 44 44 46 46 46 45 44 43 42 41 42 41 37 34 33 32 31 31 31 32 33 34 36 35 38 34 32 31 31 26 30 28 26 28 27 26 27 28 26 21 17 17 17 19 22 24 25 25 25 27 28
41 44 43 44 45 45 45 45 45 44 44 42 36 33 33 31 30 29 27 29 29 32 33 34 32 34 35 36 32 32 29 28 29 26 24 26 27 28 28 21 22 21 22 21 18 20 23 25 26 27 27 28 29 28
38 41 44 44 45 43 44 44 43 41 38 34 32 28 30 28 30 30 30 32 33 34 34 34 31 33 32 31 31 28 27 27 24 22 23 26 28 26 20 22 20 16 19 21 23 24 27 27 27 28 28 28 28 28
39 42 44 44 43 44 44 42 41 38 34 31 32 27 28 29 31 32 33 33 33 35 34 32 31 32 29 27 28 26 24 22 22 21 24 27 23 21 23 25 20 24 24 24 23 26 27 27 27 28 29 30 30 30
40 43 43 43 41 40 41 39 37 36 31 28 28 27 29 30 29 31 32 32 34 33 33 32 29 28 26 27 24 24 22 19 22 26 29 24 24 25 25 22 22 22 23 24 25 27 27 28 28 28 29 29 29 30
41 41 43 42 40 37 36 34 33 26 30 26 27 29 29 30 31 31 33 33 35 32 29 28 26 25 25 23 23 23 22 24 26 27 24 24 24 22 22 24 25 25 24 25 26 27 28 29 30 29 29 27 28 29
39 42 42 39 39 39 36 33 29 26 23 26 25 28 29 30 30 30 32 33 33 29 27 25 23 22 21 20 21 24 25 26 25 22 21 23 25 25 25 23 23 23 24 26 28 29 28 29 29 27 26 26 26 27
38 42 39 40 38 35 32 32 29 23 24 26 27 28 28 29 28 29 30 32 32 29 27 26 23 21 20 20 24 26 26 26 24 22 22 23 25 24 25 24 24 24 25 26 27 27 27 28 29 28 27 27 26 27
42 42 38 35 35 32 30 28 28 23 23 25 27 27 26 27 27 29 30 32 32 31 29 26 24 25 25 24 23 24 23 24 23 23 21 22 24 24 24 24 23 24 25 26 28 28 28 28 29 28 28 27 27 27
37 38 36 34 30 29 27 26 25 26 25 25 26 26 25 27 27 27 28 30 29 27 25 26 29 29 28 25 24 24 24 24 23 24 23 22 23 24 25 24 25 26 27 28 30 29 29 30 29 29 29 28 28 29
35 37 32 33 29 27 25 26 25 24 24 25 25 24 25 25 24 24 26 25 24 25 26 27 24 25 25 25 24 26 25 25 25 25 25 26 26 25 26 26 27 29 29 31 30 31 31 30 29 29 29 28 29 29
35 33 30 29 26 24 24 26 23 22 21 22 23 22 22 23 22 24 22 22 23 24 24 25 25 26 24 24 25 25 25 25 24 25 27 27 27 28 29 28 29 30 29 29 29 30 30 30 29 30 30 29 28 26
31 28 25 22 23 22 23 23 23 23 22 21 20 17 19 21 22 21 20 22 23 25 24 24 25 23 23 24 22 21 22 25 25 26 28 27 26 26 27 28 29 30 29 28 30 30 30 29 29 29 29 27 26 26
24 22 21 19 21 19 19 20 20 20 19 18 18 18 19 19 20 19 19 20 24 25 24 22 21 21 21 22 23 23 24 24 24 24 26 27 28 29 29 29 29 29 29 29 29 30 29 28 28 27 26 26 25 25
17 21 19 19 19 17 18 16 17 18 18 17 18 17 17 20 18 15 16 22 25 25 26 26 25 22 20 21 21 21 24 27 27 26 27 28 28 29 28 28 27 27 30 30 28 27 25 24 24 24 23 24 23 23
16 19 21 20 19 17 17 17 17 17 16 16 19 17 18 15 14 16 20 22 22 23 24 25 25 23 23 24 25 26 28 28 28 27 29 29 29 29 28 26 26 28 28 29 28 27 25 24 25 24 24 23 24 23
20 21 17 21 20 19 17 17 17 16 18 18 18 16 15 15 14 20 20 18 19 21 22 22 23 21 22 24 24 26 25 26 26 28 30 29 29 27 25 26 26 25 27 27 27 27 27 26 24 24 24 23 23 23
22 21 21 18 19 19 19 18 18 19 19 19 18 17 18 18 15 14 14 15 16 16 15 15 15 16 18 18 19 21 21 20 19 19 20 22 27 21 21 21 22 23 23 24 24 24 23 23 23 22 22 22 21 20
21 22 20 19 18 18 22 22 23 23 21 22 21 20 18 14 12 12 12 12 12 12 12 12 12 13 13 13 14 16 18 17 16 14 14 14 14 16 17 16 17 18 18 20 21 21 20 20 19 18 17 16 15 14
20 21 20 20 20 23 22 17 18 19 20 22 21 21 20 12 11 10 10 10 10 10 9 9 10 12 11 11 11 11 12 13 12 13 13 14 14 14 13 13 13 14 16 17 17 17 16 16 15 14 12 10 9 9
19 20 20 19 20 19 17 19 19 19 19 17 17 16 15 13 8 7 8 8 7 7 7 8 8 9 11 12 12 12 11 10 10 9 9 9 9 9 10 10 11 12 13 14 14 13 12 11 10 10 9 7 6 5
15 16 16 16 18 19 14 11 11 11 13 13 14 13 10 9 5 6 7 8 8 7 7 7 8 9 11 11 10 10 10 10 9 8 7 6 5 5 6 7 8 9 10 10 10 9 8 7 6 5 4 3 2 1

GFSWCAN_sfc_30mbdewp_024.txt.gz
Dewpoint
51 50 50 49 49 49 50 50 51 52 52 52 52 52 50 50 50 53 53 54 53 47 44 44 42 41 40 40 43 41 40 42 44 37 37 38 36 34 31 27 32 29 31 30 30 28 25 30 30 32 37 39 40 38
50 50 50 49 49 49 49 50 51 52 52 51 52 52 51 50 50 52 48 52 54 48 48 50 50 49 47 46 41 44 38 42 44 42 41 41 35 39 36 28 24 26 33 32 32 31 34 35 37 41 41 39 39 38
50 50 50 49 49 49 49 50 50 51 51 51 52 52 52 51 51 53 51 54 50 52 47 47 46 49 49 50 50 43 46 40 40 46 44 40 33 40 30 34 29 28 28 31 32 32 31 38 41 40 39 38 38 38
47 49 50 49 49 49 49 49 49 50 51 51 51 51 52 51 53 53 51 53 50 49 42 46 47 47 48 49 49 49 46 48 47 47 41 39 33 38 39 35 34 35 32 32 33 34 35 41 41 41 39 39 37 31
46 46 47 49 50 49 49 49 49 50 50 51 51 51 52 52 52 54 54 53 53 50 41 47 46 46 46 47 47 47 47 46 47 42 38 37 44 40 43 41 39 35 32 33 35 38 38 40 41 40 38 35 31 24
45 45 46 46 47 49 49 49 49 49 50 50 50 51 51 51 51 53 46 52 53 53 45 39 46 44 44 46 47 46 45 45 45 45 42 44 40 41 38 35 34 31 34 35 37 40 41 41 41 38 33 30 24 24
44 45 45 45 46 46 48 49 49 48 49 49 50 50 51 51 53 48 45 50 51 54 44 39 44 43 43 45 46 47 48 48 46 44 44 43 43 41 39 35 33 33 34 36 38 40 38 37 35 33 27 25 22 16
44 43 44 44 45 45 46 47 48 49 48 49 50 50 51 50 49 49 51 52 52 49 48 40 40 41 43 44 43 43 44 44 44 43 42 41 42 42 37 38 36 35 36 36 37 39 39 39 30 26 23 17 16 16
44 43 43 44 45 45 45 45 47 48 48 49 49 50 51 51 49 51 50 51 53 49 43 39 35 33 42 41 41 42 43 38 42 39 38 41 38 35 37 38 38 36 35 34 33 30 29 26 23 19 17 16 17 18
43 43 44 45 45 45 45 46 46 47 48 49 48 46 43 43 47 49 48 47 47 47 45 38 40 38 39 39 37 37 39 37 34 36 38 34 34 39 38 38 38 36 35 33 30 28 25 22 19 18 18 19 21 21
43 43 44 45 44 45 45 46 46 47 48 44 40 38 42 45 44 44 41 40 40 38 39 40 42 38 42 36 36 39 35 36 31 34 34 33 31 34 38 35 36 35 33 30 27 24 19 18 18 19 22 25 25 26
43 43 44 45 44 45 45 45 45 44 43 42 42 42 41 38 36 37 36 35 35 35 35 34 36 40 38 41 37 35 34 34 30 34 32 28 30 34 35 34 31 30 28 22 19 18 18 18 20 24 26 26 26 28
41 43 44 45 44 44 44 44 43 43 43 39 36 34 35 32 30 30 28 30 31 33 33 34 33 35 36 36 33 32 30 29 35 30 27 28 33 32 32 30 29 26 20 20 17 17 19 20 24 26 27 28 29 30
39 42 44 44 44 44 42 40 40 42 39 34 32 29 30 29 30 30 30 32 34 35 34 34 32 33 33 32 32 30 31 32 27 25 26 31 28 28 29 29 27 23 17 18 20 23 23 26 27 30 30 30 31 30
39 41 43 44 44 44 41 40 40 38 38 33 34 28 29 30 31 32 33 33 34 37 36 34 34 34 31 30 31 29 27 26 28 28 32 32 31 30 27 25 23 24 23 23 23 23 23 26 28 29 31 31 32 32
39 41 43 44 43 41 40 39 40 40 34 33 32 30 32 31 31 32 32 32 35 35 36 35 31 30 29 30 28 27 27 25 30 33 32 29 28 27 26 25 22 23 24 25 25 25 25 26 27 29 31 32 31 31
38 40 42 42 41 39 39 38 37 32 32 32 30 35 33 33 32 32 34 34 37 34 31 32 28 26 30 28 26 30 28 30 32 31 29 28 27 26 23 23 25 26 26 26 26 26 26 27 29 30 30 31 31 32
36 41 40 39 41 39 37 37 35 32 28 30 31 31 32 34 32 32 34 36 35 33 32 30 29 27 26 24 25 30 29 30 30 28 26 24 24 26 26 26 25 25 25 26 26 27 28 28 29 30 31 31 30 28
39 42 42 40 40 37 34 34 35 29 28 30 31 31 31 31 33 33 34 34 33 32 30 30 28 25 25 26 29 33 33 31 28 26 24 24 25 26 26 26 26 26 27 27 27 27 28 28 28 29 30 30 29 31
41 41 41 40 40 36 32 32 32 28 28 28 30 29 31 30 30 31 33 34 33 32 29 27 27 29 29 27 27 29 27 28 26 26 26 25 24 25 26 27 27 27 27 27 28 28 29 29 29 29 29 30 31 32
38 38 38 38 35 35 33 29 29 28 27 28 30 29 27 29 29 29 30 32 31 29 25 25 29 31 31 30 29 29 28 27 25 25 25 24 25 27 27 27 27 28 28 29 30 31 32 32 32 33 33 34 32 31
36 36 34 34 32 31 31 30 29 28 29 28 28 28 26 26 26 26 29 27 26 26 26 26 26 26 27 28 27 27 26 26 27 26 25 26 26 27 27 28 28 29 30 30 30 30 32 33 33 34 34 33 32 32
36 34 32 32 29 29 27 31 27 26 25 26 26 25 25 24 25 26 24 25 25 26 26 25 25 27 28 27 24 25 25 25 24 24 26 27 28 29 28 28 29 29 29 30 31 32 32 32 32 32 32 31 31 30
34 31 29 28 29 24 28 25 24 24 24 23 23 22 23 23 24 23 22 23 23 25 24 24 24 23 25 25 21 21 25 26 25 25 27 27 26 27 28 28 29 29 29 30 31 32 32 31 31 31 30 29 28 27
28 25 27 23 27 23 22 22 22 23 21 23 21 22 23 23 21 20 20 25 28 27 28 30 28 23 21 24 26 27 29 29 28 27 27 28 29 30 28 29 29 29 30 30 30 31 31 31 30 29 28 27 27 27
23 25 25 25 23 23 22 20 21 21 21 21 21 23 24 22 20 17 20 27 25 24 25 25 25 25 24 23 22 23 23 24 23 22 22 23 24 24 25 25 25 26 25 27 27 28 29 29 29 28 27 27 28 27
22 21 23 23 23 23 23 25 25 23 20 19 21 21 20 17 16 23 22 22 23 22 22 23 21 20 20 20 20 20 22 23 20 20 21 23 24 23 21 20 19 20 24 24 25 25 25 26 27 27 27 27 27 27
23 24 20 23 23 23 21 21 21 20 21 20 22 19 18 16 20 21 20 19 19 20 20 20 19 18 19 18 19 21 19 18 17 17 17 25 21 19 18 19 19 18 19 20 22 23 23 24 23 24 24 23 24 24
22 24 23 21 23 24 22 21 21 19 21 22 21 19 23 19 19 19 18 18 19 19 17 16 17 18 17 17 19 21 17 14 12 10 10 11 12 12 15 16 15 16 17 17 18 19 21 23 23 23 22 22 22 22
23 26 23 22 20 21 24 28 27 28 27 29 27 21 19 16 16 17 18 17 15 15 16 17 17 15 14 14 14 13 19 15 13 10 8 8 9 12 13 12 12 13 14 15 15 16 18 19 20 22 20 18 16 17
24 24 23 23 23 26 26 26 27 27 28 26 28 25 18 14 14 14 14 16 16 15 13 12 12 14 11 11 12 10 10 11 13 13 11 12 11 11 10 10 10 11 12 12 12 14 16 15 17 17 15 13 12 11
22 21 21 20 24 25 25 24 24 24 24 24 23 21 19 18 14 13 12 14 13 11 10 10 10 10 11 12 12 13 15 12 12 12 10 11 9 8 8 8 9 9 8 7 9 13 13 13 13 11 10 8 7 6
21 21 20 20 19 19 23 20 16 16 19 18 19 17 15 16 12 12 13 12 11 10 9 9 9 10 13 12 8 12 8 8 8 11 10 10 8 7 6 6 7 7 5 5 6 11 10 8 7 7 5 4 2 0

GFSWCAN_sfc_30mbdewp_027.txt.gz
Dewpoint
49 49 49 49 49 49 49 50 52 52 51 52 52 51 50 50 51 55 51 55 52 46 46 49 49 44 43 43 39 42 39 41 42 34 29 33 33 31 30 31 30 24 26 28 29 26 23 33 33 28 34 40 39 37
49 49 49 49 49 49 50 51 52 52 51 52 52 51 51 51 52 53 48 54 55 50 50 50 49 50 50 49 44 42 36 43 43 38 39 40 33 38 34 25 32 26 29 28 29 27 31 37 36 41 41 39 38 37
50 49 49 49 49 49 50 51 51 51 51 52 51 51 51 51 52 53 52 54 53 49 47 48 47 49 49 50 51 41 44 44 45 47 41 38 29 37 28 31 30 29 34 32 33 33 36 40 40 40 39 38 38 39
50 49 49 49 48 49 50 50 50 51 51 50 50 50 51 51 52 55 53 54 50 47 41 46 47 47 48 49 49 49 47 49 49 44 39 38 30 40 34 29 32 31 35 32 33 34 40 41 40 40 40 39 38 37
47 49 49 49 49 49 49 49 49 50 50 50 50 50 50 51 51 55 54 54 54 50 38 45 47 46 46 48 47 48 48 47 45 41 37 34 38 40 40 39 38 38 34 31 29 36 36 40 41 39 38 37 32 24
45 46 48 49 49 49 49 49 49 49 49 50 50 50 51 51 52 54 50 53 52 54 41 34 46 44 45 46 47 47 48 47 46 42 39 43 45 38 37 36 37 37 37 36 39 42 41 41 40 40 36 28 25 24
45 45 45 46 47 48 49 49 48 48 48 49 49 51 51 50 50 48 45 50 50 53 39 39 42 44 43 45 46 47 47 47 46 44 42 41 42 41 38 34 36 36 34 40 41 40 39 39 36 34 27 25 20 18
44 45 45 45 45 45 47 48 49 47 48 49 50 51 51 50 50 50 50 51 51 48 45 36 37 40 44 42 41 44 42 43 43 42 42 40 41 39 36 38 38 37 37 39 40 40 38 38 35 28 21 18 18 19
44 45 45 45 45 45 45 46 48 48 48 49 50 51 51 49 48 50 49 50 53 48 40 38 31 28 42 40 41 41 43 37 41 39 39 40 37 35 37 38 39 38 36 36 36 38 37 36 23 18 18 20 20 20
44 45 44 44 44 45 45 46 47 48 49 49 48 47 44 44 46 49 48 43 44 45 43 37 39 37 39 38 37 37 38 37 33 35 38 35 34 38 39 39 37 37 35 35 31 29 25 21 19 19 21 24 24 24
44 45 44 44 45 46 46 46 47 47 47 44 41 40 42 45 45 43 39 39 39 37 40 40 39 37 41 35 35 38 35 36 30 33 33 32 31 33 36 37 36 34 33 30 26 22 21 20 20 22 25 26 25 25
44 45 44 44 44 44 45 45 44 44 43 43 42 43 40 37 37 38 36 36 36 35 35 36 37 39 39 41 36 35 34 34 28 36 33 28 31 36 34 32 32 30 26 21 20 20 21 24 24 24 24 23 26 27
43 44 44 44 42 42 43 43 43 43 42 39 37 35 36 32 31 31 30 30 31 33 34 34 34 35 36 37 34 33 31 30 35 30 27 29 34 34 32 24 20 20 19 19 18 21 20 21 23 22 23 26 27 28
42 44 44 44 43 41 40 40 41 42 39 35 33 29 31 29 30 30 30 31 33 34 34 34 32 33 33 33 32 29 31 31 28 25 25 34 33 33 31 25 21 17 16 15 18 22 22 23 24 26 28 28 28 28
40 43 44 44 43 41 40 40 41 41 38 33 34 28 29 31 32 32 33 33 34 36 35 33 33 33 31 30 31 29 27 26 28 27 31 33 29 27 25 23 22 22 21 22 23 22 22 24 25 26 28 29 30 30
39 42 42 43 41 40 39 39 39 39 34 32 31 29 31 31 30 32 32 31 34 34 35 34 31 30 28 29 28 27 27 25 28 32 31 28 27 27 26 24 22 22 23 24 25 26 26 25 25 26 29 30 30 30
39 40 43 41 39 39 39 38 35 32 32 31 29 34 33 32 31 31 34 33 36 33 30 31 28 26 30 27 26 29 27 29 31 29 29 28 27 26 23 25 26 27 27 27 27 26 26 26 27 27 27 28 29 30
39 42 41 40 41 39 38 38 34 31 28 31 31 31 32 33 31 32 34 35 34 33 32 29 30 27 24 23 27 31 31 29 30 27 26 26 27 27 26 25 26 25 25 25 25 26 26 26 27 27 28 29 30 29
40 43 40 42 40 37 34 34 35 28 29 30 31 31 31 30 32 33 33 33 32 33 29 29 27 25 25 26 30 31 30 30 28 26 25 25 25 25 26 27 25 25 26 27 27 27 27 28 28 28 28 29 29 29
40 39 40 40 40 35 31 32 34 30 27 30 30 30 30 29 30 32 33 34 32 31 27 26 27 30 29 27 28 29 30 28 26 25 25 25 26 25 26 27 27 28 27 27 27 28 29 29 30 30 31 31 31 31
38 38 37 37 35 36 33 31 29 29 29 30 31 29 27 28 27 28 29 31 30 29 26 27 30 31 30 29 28 28 28 27 26 26 26 24 25 25 25 25 27 28 28 28 28 28 28 29 30 31 32 32 33 33
36 37 35 35 32 32 31 31 31 29 30 28 30 28 25 25 25 26 28 26 25 27 27 27 27 28 30 30 29 29 28 25 26 25 26 26 26 27 27 28 28 27 27 28 29 29 30 30 31 31 30 30 32 31
36 35 32 32 29 29 27 32 29 28 24 26 29 26 25 25 26 27 24 25 26 28 27 27 28 27 28 26 24 27 28 27 27 28 28 28 27 28 29 29 29 29 29 29 29 30 30 31 30 30 29 30 31 29
35 31 29 29 29 25 30 28 30 28 27 22 24 23 24 23 24 23 23 24 28 29 29 29 29 25 26 27 28 26 26 26 25 25 25 25 26 25 24 24 24 25 27 27 27 26 27 28 28 30 30 30 28 27
28 26 27 24 28 25 23 23 23 23 22 23 22 22 23 23 22 21 20 26 25 25 26 26 26 26 25 24 25 24 23 22 21 21 22 21 21 21 22 23 24 23 21 21 21 22 23 25 26 28 28 28 26 26
23 26 24 25 24 25 23 21 21 21 21 21 23 24 23 22 20 19 22 24 23 23 23 23 23 22 21 22 20 20 22 22 19 18 18 21 21 18 16 15 15 15 18 19 18 18 18 20 21 24 24 26 26 26
21 22 25 24 28 26 24 26 26 23 21 20 21 21 21 18 17 21 22 22 22 23 24 23 20 20 20 19 19 22 19 17 16 16 18 22 19 17 16 14 13 15 16 17 16 16 16 18 18 20 21 23 24 24
24 23 20 24 26 27 23 23 23 22 22 24 23 20 18 18 19 20 21 21 21 23 23 20 19 21 20 21 21 17 15 13 12 10 15 17 15 13 12 13 14 12 11 13 14 14 15 16 17 18 19 20 22 21
24 27 24 22 23 24 23 22 21 24 27 24 21 21 19 18 18 20 20 21 21 20 17 17 16 17 15 16 18 17 12 10 7 6 5 5 6 7 10 10 9 9 9 10 11 12 13 14 17 17 18 19 18 14
23 26 23 21 21 22 25 27 27 27 28 28 22 19 17 16 17 19 18 16 16 16 18 17 17 13 12 12 12 11 15 12 11 9 6 5 7 10 9 7 7 7 8 9 7 6 8 11 15 16 16 13 13 9
24 24 21 21 23 25 25 25 25 26 26 25 25 20 15 13 14 14 13 16 15 12 12 11 12 11 9 10 11 9 9 11 12 12 10 10 11 8 7 7 5 6 7 6 3 4 5 9 12 11 10 8 7 5
22 21 20 20 23 24 24 22 22 22 22 20 22 19 16 15 10 12 12 14 12 10 10 9 9 9 10 12 9 9 11 7 6 6 10 10 9 7 5 4 5 6 7 4 3 3 5 8 7 6 5 3 2 1
19 20 20 20 20 21 22 20 19 18 20 19 18 18 14 12 8 11 13 12 10 8 8 8 8 8 11 6 6 5 4 5 6 8 7 10 6 5 5 5 7 7 3 1 2 5 4 5 2 1 0 -1 -2 -3

GFSWCAN_sfc_30mbdewp_030.txt.gz
Dewpoint
49 49 48 48 48 48 48 50 51 51 51 51 51 50 51 51 52 50 52 54 48 44 48 48 48 43 43 40 36 41 36 39 37 28 22 30 28 29 29 31 29 24 24 28 28 25 17 30 32 28 30 39 38 38
49 48 48 48 48 48 49 51 51 51 51 51 50 50 51 52 52 53 49 54 53 47 48 49 49 49 49 46 43 42 32 40 38 34 34 36 31 36 31 24 32 23 23 23 28 24 28 34 33 37 40 39 38 37
48 48 48 48 48 50 51 51 51 51 51 49 49 49 50 51 53 53 52 54 50 45 46 46 46 48 48 49 50 38 44 45 44 41 39 37 26 36 28 30 32 30 33 30 31 31 33 37 40 40 40 39 39 38
48 48 48 48 49 50 50 51 51 50 50 49 49 49 50 51 53 53 52 53 46 44 36 45 48 46 47 49 49 47 47 48 45 41 37 36 28 36 29 27 31 27 35 32 32 37 40 40 40 39 39 38 39 38
48 48 48 48 49 49 50 50 50 49 49 49 50 50 50 51 54 53 52 52 52 39 37 43 46 46 46 47 48 48 47 46 42 39 37 35 35 38 37 37 34 36 31 31 30 34 35 37 40 40 39 38 38 26
48 48 48 48 48 49 49 49 48 48 49 49 50 50 50 50 54 52 44 51 51 49 38 34 45 43 44 47 48 48 48 47 44 39 37 39 44 36 35 35 37 39 39 37 36 41 41 41 40 40 39 34 27 23
46 47 48 48 48 48 48 48 48 48 48 49 50 50 48 49 48 46 42 49 50 48 37 39 40 43 43 46 44 46 46 45 45 42 40 40 41 40 37 34 35 36 37 39 42 41 40 40 39 39 29 25 21 19
45 45 45 47 48 48 48 47 47 48 49 50 51 51 50 50 50 48 49 49 49 44 38 32 35 38 43 41 41 43 41 41 42 42 41 40 39 37 36 37 38 38 38 41 41 39 39 39 35 28 21 21 20 19
45 45 45 45 45 46 48 48 47 47 49 50 50 49 46 47 46 48 48 48 50 43 36 36 28 28 40 39 39 40 40 37 39 38 38 39 35 34 36 38 38 39 38 39 39 38 38 35 27 20 21 21 20 21
44 44 45 46 45 45 46 48 48 48 49 47 47 43 41 43 45 47 45 41 41 42 40 36 37 35 39 36 37 37 37 36 32 34 38 36 34 37 37 38 39 38 39 39 37 32 24 23 22 22 22 23 23 23
44 44 44 45 46 46 46 47 48 48 46 45 43 41 42 44 43 41 37 37 38 36 39 38 37 37 40 34 35 36 34 34 29 30 33 30 31 32 36 36 34 30 30 30 29 28 25 25 25 24 25 25 25 24
44 43 43 44 44 45 45 45 44 43 43 43 42 42 39 37 38 37 35 36 36 34 36 37 37 39 39 39 36 35 33 33 28 35 32 28 30 33 31 31 29 29 31 31 32 31 28 24 24 22 21 20 22 25
44 44 43 42 41 42 43 43 44 44 42 41 38 36 36 33 34 33 31 31 31 33 34 35 35 35 36 37 35 34 31 30 34 31 28 30 35 28 25 23 22 28 31 29 24 22 21 21 22 21 21 23 25 26
44 44 44 42 41 41 41 42 42 41 38 36 34 30 31 29 29 30 31 31 33 34 34 34 32 33 33 33 32 30 31 31 28 25 24 32 36 35 25 21 18 17 18 19 21 22 21 23 23 25 25 26 27 27
43 43 42 42 41 40 40 39 41 40 35 33 32 27 28 30 31 31 33 33 33 35 34 33 32 33 31 30 31 29 27 25 27 26 30 32 29 27 25 24 22 21 21 21 22 22 22 23 24 24 26 27 28 28
40 41 42 40 40 40 40 39 37 35 33 31 30 28 30 30 30 31 32 31 34 34 35 34 31 30 28 29 27 27 26 23 26 31 32 32 32 34 35 28 23 24 24 25 25 26 26 25 25 25 27 27 27 27
39 39 42 41 41 40 39 37 33 32 31 29 30 33 32 31 31 32 33 33 36 33 29 30 27 25 29 27 26 29 25 29 31 32 34 30 28 26 24 27 26 25 25 25 25 25 25 26 26 26 25 26 27 28
40 41 41 41 40 38 37 36 32 30 29 31 30 31 32 32 31 32 33 34 33 32 32 28 30 27 25 23 26 30 31 30 31 30 29 28 27 26 26 25 26 24 24 25 26 26 27 26 26 26 27 28 29 29
41 41 41 41 39 35 32 32 34 27 29 31 31 30 30 31 32 33 33 32 32 32 29 29 26 25 25 27 29 31 30 28 27 26 26 26 26 26 26 27 26 25 26 26 27 27 27 27 28 28 29 29 29 30
39 39 39 38 39 33 29 29 32 28 26 29 31 30 29 29 30 32 33 33 32 30 26 25 26 28 27 27 30 30 30 28 25 24 24 25 26 26 25 25 25 27 27 28 28 28 28 28 28 28 28 29 30 30
37 38 37 36 35 34 32 30 28 28 28 28 29 28 27 29 28 28 29 31 28 28 27 28 28 30 28 27 28 28 27 25 25 24 24 21 25 26 27 28 28 28 27 27 27 27 27 28 29 30 29 30 31 31
35 37 35 35 31 31 30 31 30 29 28 29 29 26 25 24 24 25 27 26 24 25 27 27 28 30 29 29 28 28 27 26 27 27 27 27 26 26 26 27 25 24 25 26 26 26 26 26 26 27 27 28 29 29
36 36 32 31 27 27 27 33 28 27 24 27 29 25 24 24 26 27 23 24 25 29 28 28 27 28 27 27 25 25 26 26 24 24 24 25 25 22 22 23 24 22 20 20 23 24 23 22 23 23 25 27 29 29
35 30 28 27 27 24 28 27 29 28 26 26 26 23 24 23 24 23 21 24 27 27 26 26 27 27 27 25 22 22 22 22 21 22 21 20 20 21 22 21 21 18 17 18 17 16 17 17 18 19 21 22 24 26
27 25 26 23 26 23 23 23 25 24 22 24 24 22 22 22 19 20 20 23 24 23 24 23 23 24 23 22 21 21 21 18 17 18 19 21 17 15 15 15 15 16 14 13 13 13 12 13 14 16 17 18 19 21
21 24 23 23 23 23 21 20 22 23 22 22 22 23 22 21 20 19 21 22 22 22 22 22 21 20 19 19 19 18 16 17 16 15 18 17 15 12 10 10 10 10 11 11 11 10 10 11 11 12 13 15 17 19
21 21 25 27 27 27 24 25 26 24 22 20 21 21 20 18 17 19 21 21 21 23 22 21 20 19 18 20 19 14 12 11 10 10 17 14 12 10 9 8 7 9 9 9 9 9 8 8 9 10 11 14 15 16
25 23 19 22 25 27 23 23 22 22 23 26 23 20 19 17 16 17 19 21 23 21 20 20 19 19 19 17 14 10 8 6 6 11 12 9 8 9 9 8 7 8 7 6 7 8 6 6 7 9 11 13 14 13
24 27 25 22 24 25 24 23 24 25 26 25 19 20 16 15 15 18 18 20 19 18 15 14 13 12 12 13 12 10 7 5 4 3 2 2 3 4 8 5 5 4 4 5 6 6 5 6 8 9 12 13 9 8
23 26 23 21 21 22 23 25 25 26 27 22 19 17 15 14 14 16 15 14 14 14 13 11 9 8 8 8 7 8 9 8 8 6 4 3 5 7 5 2 2 3 4 5 4 3 2 3 4 10 8 8 7 5
24 24 21 21 22 23 24 25 25 25 25 24 19 14 11 11 12 13 13 12 11 10 9 8 8 7 8 8 6 5 6 6 4 6 7 7 7 5 2 3 3 3 3 4 2 -0 1 3 5 5 3 2 2 1
21 20 20 19 20 22 22 21 20 20 19 19 18 14 12 9 6 9 12 9 7 7 6 5 6 6 7 6 5 3 3 3 4 5 6 7 5 4 3 3 3 3 2 -2 -2 -1 2 2 0 -1 -1 -2 -2 -3
18 17 17 17 19 20 20 16 16 18 17 17 15 14 10 8 6 8 12 7 6 6 5 4 4 6 6 3 1 1 2 2 4 4 5 7 5 4 2 2 1 -2 -4 -4 -4 -2 -1 -2 -3 -3 -4 -5 -5 -6

GFSWCAN_sfc_30mbdewp_033.txt.gz
Dewpoint
48 48 48 48 47 48 49 51 51 51 51 50 49 50 51 52 52 50 52 54 45 45 47 48 48 42 41 39 35 39 36 38 33 27 21 24 23 29 28 29 29 26 27 27 26 25 16 28 30 27 28 35 38 38
48 48 48 47 47 48 50 51 51 51 49 48 49 50 51 52 52 50 50 54 52 47 47 49 48 49 49 41 42 40 35 37 35 29 29 32 27 33 29 20 32 23 23 22 27 22 28 31 31 33 36 36 38 38
48 48 48 47 47 49 51 51 51 49 48 48 49 50 51 52 52 52 51 51 46 45 46 45 46 48 48 49 48 36 42 42 40 38 37 34 25 34 25 29 30 31 31 26 28 27 30 31 37 40 40 39 38 39
48 48 48 48 49 50 51 50 49 48 48 49 49 50 51 52 52 52 51 52 43 41 39 44 47 45 47 49 49 46 46 45 42 39 35 32 23 33 28 28 31 30 33 30 31 33 39 39 39 39 39 39 39 39
48 48 49 49 50 50 50 49 49 49 49 50 49 49 52 52 52 51 51 51 50 33 38 43 45 45 46 49 48 47 45 44 41 38 37 35 33 35 35 35 32 34 30 28 24 30 33 33 39 39 38 38 38 30
48 48 49 49 49 49 49 48 48 48 49 50 49 48 49 53 53 44 39 49 50 46 38 37 43 43 44 48 47 47 47 44 41 39 37 37 41 36 33 34 35 37 38 34 34 36 37 39 40 40 39 39 29 24
47 48 49 49 49 48 48 48 48 49 49 50 49 48 48 49 49 43 39 48 48 45 36 38 39 41 43 44 43 44 44 44 43 40 38 38 40 40 35 32 33 34 36 37 40 41 40 40 39 40 35 27 24 21
47 47 48 48 48 47 47 47 48 49 50 51 50 49 50 49 49 46 48 47 47 39 35 30 34 38 42 41 41 41 40 40 40 40 39 39 38 37 36 37 38 39 39 40 41 39 40 40 34 24 22 22 22 23
45 46 47 48 48 47 47 48 48 49 50 50 47 47 45 45 45 46 47 47 45 39 32 33 27 28 40 38 38 39 39 38 38 38 38 38 35 34 37 37 38 38 39 39 40 39 36 29 25 28 29 31 28 21
45 45 45 46 47 47 47 48 48 49 48 46 45 41 40 43 44 45 42 39 39 40 39 34 36 35 39 36 37 36 35 34 32 34 38 36 35 36 35 36 37 38 37 40 37 29 28 27 28 30 33 27 23 23
45 45 45 45 46 47 48 48 48 47 46 44 42 41 43 43 42 39 36 35 37 36 38 36 36 36 38 35 35 34 33 33 28 29 32 29 29 33 31 31 31 31 31 31 31 33 34 34 33 30 26 25 24 23
43 43 44 45 45 46 46 46 45 44 43 43 42 41 38 37 38 35 34 35 35 33 36 37 37 38 38 37 35 35 32 32 28 34 32 28 30 28 28 32 34 35 35 35 36 35 35 34 31 25 20 19 21 24
43 43 42 42 43 44 45 45 44 43 42 40 37 36 36 35 35 34 31 32 32 33 35 35 35 35 37 36 34 34 31 30 34 31 29 30 29 33 34 35 35 34 33 33 33 29 25 22 23 22 22 23 25 25
42 42 41 41 41 41 42 43 43 42 40 36 35 32 32 30 30 30 31 31 32 33 34 34 32 34 33 34 32 30 31 32 28 25 24 31 33 34 25 22 22 23 23 23 22 21 21 22 22 24 25 26 26 26
42 41 40 41 41 41 40 40 42 39 35 33 32 28 28 30 31 31 32 33 33 35 34 33 32 33 31 30 31 29 26 24 25 24 29 30 31 28 29 31 22 22 22 22 23 23 24 24 24 24 25 26 27 27
41 40 41 41 41 40 39 37 35 34 32 31 30 28 30 30 30 31 32 32 34 34 34 34 31 29 28 29 27 26 25 22 25 29 31 31 32 33 34 32 24 26 26 25 25 25 25 24 24 25 26 26 25 26
40 39 42 41 40 39 38 35 32 31 30 28 30 33 32 31 30 31 32 33 35 33 29 30 26 26 29 26 25 28 24 28 29 28 34 33 32 32 29 25 27 25 23 23 24 25 25 26 26 26 25 26 27 28
39 40 41 40 39 37 35 34 30 29 28 31 29 30 31 32 31 32 33 34 33 31 31 27 29 26 24 23 25 26 29 29 30 29 32 31 29 26 27 26 27 25 25 25 26 26 27 26 26 26 27 28 28 28
39 39 39 39 37 33 31 31 31 27 29 31 30 30 31 31 31 33 32 32 31 31 30 28 25 24 25 28 28 31 31 28 27 27 26 27 27 26 26 26 26 26 27 27 28 28 28 28 28 28 28 28 28 28
37 38 38 38 37 31 28 28 30 27 26 29 30 29 29 29 30 32 31 32 30 29 26 25 25 26 26 27 30 29 29 27 26 25 24 25 26 27 27 27 27 27 26 26 26 26 26 26 26 26 25 26 26 26
35 36 37 36 35 32 30 29 28 28 28 27 29 28 27 28 28 29 29 30 26 27 27 28 27 29 28 28 28 27 26 26 25 23 24 26 27 26 24 24 24 24 23 23 22 22 21 21 22 22 22 22 23 25
35 37 33 33 30 29 29 31 29 29 29 29 27 26 25 24 24 25 27 25 24 25 27 27 28 29 28 27 27 27 27 26 25 25 26 25 22 20 22 23 21 20 20 19 19 20 18 19 18 17 18 19 21 21
35 33 31 30 25 25 26 32 27 26 24 27 28 25 25 25 26 27 24 24 25 28 28 28 27 27 25 23 22 22 23 23 21 20 21 21 22 21 21 19 17 14 13 14 16 15 14 14 14 14 15 16 16 17
33 28 26 25 26 23 25 26 28 27 26 26 26 23 24 24 26 24 20 23 26 25 24 26 26 24 23 22 20 19 18 20 20 19 20 20 18 17 16 16 15 13 11 10 11 11 10 10 10 11 11 11 12 13
23 23 24 20 24 23 21 21 23 23 21 22 23 21 22 22 19 18 19 22 23 22 23 23 24 24 22 20 20 17 17 18 18 17 17 14 10 10 10 11 12 11 9 7 5 6 7 7 7 7 7 9 9 10
21 22 22 22 22 21 20 19 21 21 21 22 22 22 22 20 18 18 20 21 21 21 21 21 20 19 19 20 17 14 12 14 16 15 13 11 9 6 5 4 4 4 7 7 4 3 4 4 4 4 4 6 7 9
20 21 24 27 26 26 23 23 24 23 21 21 20 21 21 17 16 17 20 20 21 20 21 21 20 19 18 14 11 9 8 9 10 14 12 10 9 8 5 3 3 4 6 5 3 3 3 2 1 2 3 5 6 9
24 23 19 21 24 26 23 22 22 21 23 25 23 19 18 17 14 16 18 20 20 19 18 17 17 17 14 11 8 7 6 9 13 10 10 6 5 7 6 5 4 4 3 2 2 4 3 3 3 3 4 4 7 7
24 26 25 22 24 24 23 22 23 24 25 25 21 17 13 13 13 15 16 18 18 15 13 11 11 11 11 10 8 7 5 4 2 1 1 1 1 3 5 0 0 1 1 1 2 4 5 6 5 6 7 8 6 4
23 25 22 21 21 20 22 23 23 25 23 20 17 15 13 12 12 14 14 13 12 10 8 7 7 7 7 5 5 5 5 4 5 4 2 1 3 5 1 1 1 1 -0 0 0 -2 -1 -0 1 1 -1 -1 -1 -1
24 24 21 22 21 22 24 25 25 26 26 20 15 11 9 10 11 11 10 9 9 8 7 6 5 4 5 5 4 4 3 2 3 3 3 4 4 3 2 1 1 -1 -1 -3 -5 -3 -2 -1 -2 -4 -4 -5 -5 -4
22 21 20 19 20 21 19 19 19 19 19 19 14 10 9 6 5 7 10 7 5 5 4 2 4 5 4 3 2 1 2 2 3 2 3 4 4 3 1 -0 -1 -3 -5 -6 -6 -4 -4 -4 -5 -6 -7 -7 -7 -7
17 16 16 17 18 19 16 13 11 16 15 14 11 10 7 6 4 7 8 4 4 3 2 2 3 3 3 0 -1 -0 1 1 0 2 3 5 4 2 -0 -2 -3 -4 -5 -6 -6 -6 -5 -6 -7 -8 -8 -8 -9 -9